Home   Weather   Lohmar   Past weeks

Flag for Germany Past Weather in Lohmar, North Rhine-Westphalia, Germany — Yesterday and Last 2 Weeks

Now
54 °F

Light rain. Partly sunny.


Feels Like: 51 °F
Forecast: 45 / 54 °F
Wind: 9 mph from Southeast

Location: Koeln / Bonn

Current Time: May 1, 2017 at 6:43:03 am

Latest Report: May 1, 2017 at 6:20 am


Visibility: N/A

Pressure: 29.71 "Hg

Humidity: 54%

Dew Point: 37 °F

Location of LohmarLocation

Past Weather in Lohmar — Graph

°F

Lohmar Temperature Yesterday

Maximum temperature yesterday: 66 °F (at 4:50 pm)
Minimum temperature yesterday: 39 °F (at 4:50 am)
Average temperature yesterday: 54 °F

High & Low Weather Summary for the Past Weeks

 TemperatureHumidityPressure
High66 °F (Apr 30, 4:50 pm)100% (Apr 17, 3:20 am)30.63 "Hg (Apr 17, 3:20 am)
Low25 °F (Apr 20, 6:20 am)28% (Apr 30, 5:50 pm)29.68 "Hg (Apr 25, 2:50 am)
Average45 °F67%30.12 "Hg
* Reported Apr 16 5:20 am — May 1 5:50 am, Lohmar, Weather by CustomWeather, © 2017

Note: Actual official high and low records may vary slightly from our data, if they occured in-between our weather recording intervals... More about our weather records

Advertising

Lohmar Weather History for the Previous 24 Hours

Scroll right to see more
 ConditionsComfort  
Time TempWeatherWind HumidityBarometerVisibility
5:50 am
Mon, May 1
54 °FPassing clouds.9 mph54%29.71 "HgN/A
5:20 am54 °FClear.8 mph54%29.71 "Hg10 mi
4:50 am54 °FClear.7 mph54%29.71 "Hg10 mi
4:20 am54 °FClear.6 mph54%29.71 "Hg10 mi
3:50 am54 °FPassing clouds.6 mph54%29.68 "HgN/A
3:20 am55 °FPassing clouds.8 mph51%29.68 "HgN/A
2:20 am55 °FPassing clouds.9 mph51%29.68 "HgN/A
1:50 am55 °FClear.9 mph47%29.68 "Hg10 mi
1:20 am55 °FPassing clouds.10 mph47%29.68 "HgN/A
12:50 am55 °FPassing clouds.9 mph47%29.68 "HgN/A
12:20 am55 °FClear.9 mph47%29.68 "Hg10 mi
11:50 pm
Sun, Apr 30
55 °FPassing clouds.8 mph47%29.68 "HgN/A
11:20 pm57 °FPassing clouds.8 mph44%29.68 "HgN/A
10:50 pm57 °FPassing clouds.9 mph44%29.71 "HgN/A
10:20 pm57 °FPassing clouds.8 mph44%29.71 "HgN/A
9:50 pm59 °FClear.8 mph42%29.71 "Hg10 mi
9:20 pm59 °FPassing clouds.6 mph42%29.71 "HgN/A
8:50 pm61 °FClear.9 mph36%29.71 "Hg10 mi
8:20 pm63 °FPassing clouds.14 mph32%29.71 "HgN/A
7:50 pm64 °FPassing clouds.14 mph30%29.71 "HgN/A
7:20 pm64 °FPassing clouds.13 mph32%29.71 "HgN/A
6:50 pm64 °FPassing clouds.15 mph32%29.71 "HgN/A
6:20 pm66 °FPassing clouds.17 mph30%29.71 "HgN/A
5:56 pm66 °FPassing clouds.18 mph30%29.74 "HgN/A
5:50 pm66 °FPassing clouds.18 mph28%29.74 "HgN/A
5:20 pm66 °FPassing clouds.17 mph30%29.74 "HgN/A
4:50 pm66 °FSunny.18 mph32%29.77 "Hg10 mi
4:20 pm64 °FPassing clouds.16 mph34%29.77 "HgN/A
3:50 pm64 °FPassing clouds.17 mph34%29.77 "HgN/A
3:20 pm64 °FPassing clouds.18 mph34%29.80 "HgN/A
2:50 pm64 °FPassing clouds.17 mph32%29.80 "HgN/A
2:20 pm63 °FPassing clouds.22 mph34%29.83 "HgN/A
1:50 pm61 °FPassing clouds.17 mph34%29.83 "HgN/A
1:20 pm63 °FPassing clouds.18 mph37%29.86 "HgN/A
12:50 pm61 °FPassing clouds.18 mph39%29.86 "HgN/A
12:30 pm59 °FPassing clouds.17 mph42%29.89 "HgN/A
12:20 pm61 °FPassing clouds.17 mph39%29.89 "HgN/A
11:53 am59 °FPassing clouds.17 mph39%29.89 "HgN/A
11:50 am59 °FPassing clouds.17 mph39%29.89 "HgN/A
11:20 am59 °FPassing clouds.16 mph39%29.92 "HgN/A
10:50 am57 °FPassing clouds.15 mph44%29.92 "HgN/A
10:20 am55 °FPassing clouds.12 mph47%29.92 "HgN/A
9:50 am54 °FPassing clouds.12 mph51%29.95 "HgN/A
9:20 am52 °FPassing clouds.14 mph50%29.95 "HgN/A
8:50 am48 °FPassing clouds.10 mph54%29.95 "HgN/A
8:20 am48 °FPassing clouds.8 mph54%29.95 "HgN/A
7:50 am45 °FPassing clouds.8 mph57%29.95 "HgN/A
7:20 am43 °FPassing clouds.6 mph61%29.95 "HgN/A
6:50 am41 °FPassing clouds.5 mph61%29.98 "HgN/A
6:20 am41 °FPassing clouds.3 mph61%29.98 "HgN/A
Weather by CustomWeather, © 2017

See weather overviewHow to use our weather pages